Zurück zum Katalog

ESSAIM-1

AktivMilitärSSO
NORAD 28494·PAYLOAD·🇫🇷 France

Gestartet Dec 18, 2004 von Guiana Space Centre

Loading…

Nächste Überflüge (nächste 24 Stunden)

TLE

AktuellSource: Space-Track

Epoche: Sep 14, 2026, 15:04 UTC

1 28494U 04049C   26257.62827532  .00000755  00000-0  92189-4 0  9991
2 28494  98.2886 130.5742 0001687  92.1029 268.0379 14.86453994171576

Verfolge ESSAIM-1 in Echtzeit mit AllMySat

Download on the App Store